Wind_Speed
27 27 28 26 26 27 28 30 29 30 32 33 36 41 43 44 42 44 41 30 36 14 17 7 25 13 21 25 9 5 5 5 4 7 4 5 4 7 2 5 8 7 6 4 2 2 8 4 9 3 2 7 14 20
25 27 24 23 22 26 25 23 24 25 29 30 34 37 39 40 46 45 35 40 29 14 7 13 24 22 21 32 27 18 8 6 11 4 4 3 2 0 6 7 3 2 6 6 7 8 18 7 3 6 5 10 13 18
27 22 21 21 20 19 19 23 26 27 27 32 34 32 37 39 44 53 41 36 33 16 13 21 18 21 29 25 16 12 20 15 9 10 5 4 4 5 6 5 5 5 5 4 3 8 14 16 5 11 20 14 13 16
21 18 19 13 12 13 18 21 25 28 28 29 32 36 36 39 41 48 43 39 38 12 2 8 30 18 18 18 27 15 14 17 16 10 4 3 3 5 4 3 5 8 7 8 5 5 5 8 4 7 21 15 18 18
16 14 7 7 10 10 13 15 11 12 18 29 36 33 35 38 39 45 39 37 39 25 7 4 15 23 25 26 16 23 19 15 8 1 1 3 3 2 0 2 2 6 4 3 7 9 7 9 15 7 9 11 4 7
12 6 8 9 11 10 10 7 11 12 13 17 29 37 39 37 42 40 15 37 40 20 4 3 7 19 21 22 19 22 22 16 12 7 3 5 4 7 4 4 5 13 18 18 6 22 15 11 11 10 6 7 10 10
15 12 11 16 16 20 20 19 19 16 16 19 26 40 40 40 42 17 10 27 35 35 3 1 2 6 19 14 8 6 13 10 7 5 8 6 3 3 1 3 10 12 21 17 22 10 12 13 6 4 3 3 2 3
17 17 20 19 24 27 29 27 23 22 36 35 43 47 42 38 32 9 14 31 37 14 6 3 1 3 14 6 4 6 7 11 11 6 6 3 3 2 2 11 16 16 18 11 21 18 12 6 4 7 7 5 5 6
14 15 19 20 25 32 38 38 40 51 49 42 51 54 38 16 13 19 29 29 18 4 4 3 4 3 6 4 4 7 7 1 2 2 1 5 3 4 8 13 14 15 13 15 12 10 14 15 10 10 9 9 8 8
19 22 24 26 28 28 28 26 29 29 24 21 26 11 8 12 24 26 15 4 4 6 5 2 3 3 3 2 1 1 1 2 3 4 5 4 3 3 16 13 14 14 14 13 12 17 18 17 15 13 12 10 9 8
35 34 33 30 25 21 17 20 23 20 11 15 9 9 26 18 6 6 5 3 1 3 2 1 4 3 3 3 2 3 2 2 3 2 3 3 2 5 15 14 14 12 10 8 5 5 6 5 3 4 7 9 8 8
28 29 28 28 22 17 14 11 11 6 11 14 23 17 6 6 6 5 2 2 2 2 3 2 2 2 4 3 2 3 3 1 2 2 4 3 4 12 13 15 16 13 12 12 11 9 8 8 7 8 10 11 12 13
25 24 21 19 18 18 17 20 24 27 26 8 6 6 5 7 8 5 2 3 3 3 9 7 2 2 3 3 2 2 3 2 3 4 3 2 9 12 12 12 15 14 14 15 18 18 18 19 18 17 19 19 18 20
11 11 11 12 11 9 9 9 6 4 5 7 6 6 4 5 4 3 2 2 4 6 10 6 2 1 2 1 1 3 4 4 4 3 3 4 13 12 13 13 17 20 21 23 24 25 26 26 26 25 26 25 27 28
11 9 8 9 7 5 6 8 8 5 8 8 8 5 5 4 8 7 11 4 8 10 7 3 1 6 4 3 4 4 4 5 4 2 2 8 16 17 19 20 21 22 23 25 27 29 30 29 30 31 29 29 31 31
10 9 16 14 9 5 5 5 8 11 7 7 10 4 11 3 6 10 13 10 11 10 4 4 2 3 5 3 4 6 3 4 2 2 10 18 21 22 24 24 24 25 27 30 31 31 31 31 31 30 29 29 28 28
6 6 12 16 21 13 3 8 10 10 8 6 5 18 12 5 5 9 12 15 10 6 2 3 5 3 2 3 4 4 3 2 10 16 21 23 25 25 25 25 26 27 29 31 31 29 29 26 25 26 28 25 24 23
5 3 5 12 11 12 32 14 9 9 7 9 4 15 14 14 14 12 15 14 5 4 4 3 5 6 4 3 3 3 12 23 23 23 25 22 22 22 22 24 24 24 24 24 24 23 22 21 23 23 20 19 20 19
4 2 5 9 11 6 7 8 9 7 12 8 18 21 16 17 25 20 16 19 21 15 8 6 5 3 3 5 13 16 18 21 22 24 23 21 20 20 20 20 20 20 21 21 21 21 20 19 19 17 16 15 17 15
4 6 6 7 8 6 7 7 7 10 4 8 14 23 26 20 25 32 28 24 22 10 9 5 4 8 7 19 21 22 22 22 24 24 21 19 17 17 17 17 18 18 18 18 19 18 17 17 16 13 12 11 11 13
7 10 14 16 18 12 8 6 7 8 11 6 15 15 17 29 36 34 34 21 19 8 6 13 19 22 24 24 22 21 20 19 19 21 21 20 17 17 17 16 15 15 16 16 15 16 14 14 12 10 8 9 9 8
6 5 5 8 7 7 9 11 10 9 7 11 7 6 6 6 13 22 27 21 12 18 14 20 19 22 23 22 20 19 19 19 20 20 18 17 18 18 17 14 13 15 14 13 11 11 12 10 7 6 6 8 6 7
3 3 5 6 6 6 4 4 4 4 3 2 4 4 4 5 6 6 7 10 11 19 19 20 22 24 25 21 19 18 17 18 18 16 14 15 15 13 11 11 11 11 11 11 8 7 7 7 7 4 3 3 4 5
4 5 5 5 7 2 4 4 4 4 5 4 3 3 3 5 6 7 3 5 13 12 13 12 13 18 17 17 18 15 12 9 14 16 12 10 12 11 8 7 6 7 7 6 5 5 4 5 6 6 4 1 3 5
3 8 5 5 5 5 5 4 4 4 4 4 4 4 2 5 3 3 2 3 12 12 10 10 12 11 14 13 11 11 8 5 6 9 8 4 6 7 7 7 5 4 3 2 4 5 5 4 4 6 6 6 3 3
6 11 5 2 3 4 1 3 3 3 3 3 2 3 4 3 4 3 2 10 12 9 9 5 5 8 8 6 6 7 9 7 4 4 7 3 1 4 4 3 2 2 1 2 4 5 4 3 3 5 5 6 5 4
5 3 7 8 5 8 6 9 9 6 4 3 1 3 4 4 1 2 9 8 8 7 6 6 2 3 7 9 8 6 5 4 3 6 7 6 5 3 2 2 1 1 1 1 1 2 3 4 4 3 5 6 6 5
6 7 5 9 11 12 4 4 4 3 2 4 4 4 4 5 2 5 7 8 6 6 5 4 3 3 4 6 5 3 1 2 4 3 3 5 7 10 9 7 5 3 2 2 1 2 3 3 3 3 4 4 6 8
7 6 8 7 8 10 9 3 2 3 3 2 4 2 3 4 7 12 12 7 4 5 7 6 6 4 3 2 1 0 2 2 3 3 4 4 5 8 9 8 7 5 5 5 4 4 3 4 5 5 6 6 8 10
5 6 7 7 5 5 8 7 11 9 9 12 11 21 22 19 14 11 9 6 5 5 7 8 8 6 5 3 2 2 1 2 4 6 7 6 7 6 5 6 6 6 5 4 4 5 5 6 6 8 10 10 12 13
6 6 8 8 6 11 20 20 20 20 22 18 18 21 14 11 10 8 6 7 4 1 2 5 5 4 4 5 5 5 4 4 5 4 4 5 4 3 5 7 6 6 5 4 5 7 8 7 7 7 8 9 11 13
6 5 7 5 5 17 7 10 12 11 8 7 6 8 9 4 4 8 8 7 8 6 5 4 4 3 3 6 6 5 4 5 4 4 4 4 4 5 6 6 6 6 6 6 7 7 8 9 9 9 10 11 12 14
21 25 18 10 6 8 6 5 4 4 4 3 3 3 2 2 4 6 12 12 9 5 2 4 5 5 6 4 4 4 3 2 3 3 3 4 4 5 6 6 6 5 6 6 7 7 8 8 9 11 12 13 14 16
Wind_Direction
295 294 293 285 279 273 270 265 256 248 245 239 233 229 227 221 217 212 215 218 203 211 254 231 212 178 191 201 194 183 167 219 151 187 192 222 212 208 151 187 173 173 168 160 96 277 268 302 49 26 270 354 355 14
300 297 294 291 284 279 271 255 253 249 240 237 231 226 223 220 217 208 206 213 211 202 234 265 238 230 217 204 209 197 196 164 190 154 205 192 225 224 157 229 198 222 193 185 170 201 250 272 47 344 287 328 345 4
315 308 292 294 284 274 268 263 254 252 248 234 224 220 216 215 212 207 201 195 194 190 212 241 220 223 221 217 204 205 225 223 206 242 201 193 219 151 223 227 236 241 177 208 167 240 236 254 233 224 259 290 309 306
319 311 311 298 288 282 283 273 260 248 239 230 221 220 212 208 205 202 188 182 182 166 206 240 228 233 211 228 221 215 236 205 211 249 208 202 175 183 193 197 212 222 173 213 235 260 265 243 298 319 267 269 278 279
332 350 13 7 337 324 313 298 254 235 229 220 210 201 194 190 193 188 179 185 188 177 172 214 194 220 215 225 217 219 237 239 229 250 297 231 208 106 290 17 263 357 325 203 241 230 207 226 263 211 229 235 211 268
352 60 33 24 21 15 26 75 121 121 123 145 172 176 172 173 170 154 149 187 179 174 126 155 182 185 198 205 214 218 225 229 215 161 243 263 238 166 164 195 57 19 331 6 327 318 259 272 251 251 232 227 242 259
74 66 77 62 54 57 69 86 123 119 114 122 161 158 165 162 162 144 171 180 180 193 211 86 8 171 186 161 182 205 211 209 195 206 190 193 307 356 121 171 17 356 338 344 18 36 46 30 36 62 63 27 331 282
73 78 91 77 81 69 82 88 102 102 116 113 125 134 143 155 155 142 115 167 176 186 156 135 302 101 175 159 154 178 186 200 199 206 150 148 40 101 66 359 355 354 337 340 9 37 44 36 37 34 14 15 347 354
96 85 89 87 84 91 89 84 97 113 120 118 112 134 127 110 111 110 118 136 162 166 126 95 134 166 153 122 140 176 174 133 181 114 212 160 63 35 353 345 355 349 348 330 343 18 40 48 54 47 40 42 38 42
104 96 97 99 98 106 106 89 94 102 103 99 107 110 46 93 104 123 124 122 51 33 54 94 114 79 104 90 341 83 74 163 151 222 112 70 80 44 5 355 345 345 345 346 6 11 17 30 28 34 46 55 58 68
112 111 108 103 113 106 111 112 120 121 87 88 79 86 110 116 101 73 91 106 48 26 66 103 158 142 178 136 165 209 162 176 152 196 106 78 74 12 7 8 4 0 353 1 32 30 40 52 41 56 65 70 83 100
82 77 68 72 83 90 101 109 125 57 83 114 120 113 81 47 59 81 83 48 65 100 34 10 32 104 157 162 136 178 167 126 125 67 69 65 20 15 29 23 25 28 37 45 52 53 58 77 81 93 93 94 97 103
77 73 71 72 77 82 88 89 93 101 113 85 59 66 30 2 48 48 45 32 50 13 7 360 34 71 132 177 105 134 170 131 76 52 71 42 15 38 45 51 56 63 69 74 76 79 82 85 87 86 91 93 101 103
54 46 46 57 57 59 67 72 69 81 68 55 48 37 59 13 48 30 346 300 347 356 346 340 274 70 54 108 354 75 39 27 64 67 60 19 28 54 60 67 74 75 80 83 84 87 86 87 88 91 92 96 100 101
53 51 59 47 39 45 36 26 38 46 56 52 34 40 52 49 18 353 7 10 353 344 1 359 360 49 19 49 11 51 60 64 46 61 64 37 65 76 75 73 75 80 87 90 92 90 91 92 90 90 91 94 96 97
27 49 51 40 21 8 9 39 58 71 58 59 42 19 355 28 347 1 4 355 357 0 21 28 45 78 54 41 48 22 63 47 59 54 58 78 86 82 81 83 84 86 86 87 88 90 92 90 91 94 95 92 92 93
2 78 61 43 42 37 93 91 51 53 52 43 28 27 22 3 337 340 355 337 349 12 47 48 48 30 45 55 58 30 46 69 93 77 81 90 84 84 95 94 92 93 93 92 90 88 89 91 93 90 85 84 87 88
5 73 36 7 1 44 56 52 72 64 63 22 34 7 38 30 9 20 14 24 53 63 48 60 59 38 37 58 60 93 85 81 85 84 83 94 98 99 101 101 100 98 95 94 95 98 100 97 92 90 90 92 95 94
6 350 352 15 30 60 60 49 56 83 51 63 48 46 43 37 42 56 60 62 80 87 81 60 53 44 45 44 109 105 104 104 98 95 100 103 105 103 101 99 100 101 102 100 99 96 96 98 101 103 100 99 95 94
13 67 58 29 39 69 78 69 73 91 97 131 81 62 54 50 50 51 56 53 59 62 48 44 39 49 73 98 115 116 118 120 117 104 96 94 96 100 100 104 104 107 107 105 105 105 102 98 95 94 91 91 95 92
95 103 93 73 61 70 82 86 74 113 135 109 117 84 76 53 48 47 44 55 59 43 66 75 80 90 111 122 129 132 130 131 115 109 108 102 102 103 102 100 103 103 99 96 93 89 88 85 85 84 84 82 79 80
79 100 72 51 67 67 61 54 100 109 101 132 132 71 77 56 40 46 48 48 62 54 69 82 94 94 99 102 109 114 118 120 119 118 119 122 116 109 101 97 99 93 87 82 81 86 89 84 72 63 64 74 68 65
28 46 55 49 79 71 71 59 74 71 86 64 62 48 44 60 69 56 68 44 79 93 99 99 100 101 99 106 107 105 109 110 104 102 107 107 104 101 101 97 92 88 83 76 64 69 77 77 77 89 70 66 59 53
60 56 43 52 62 101 86 49 65 63 62 56 59 47 33 92 75 67 66 40 78 119 100 101 114 115 112 106 98 98 98 101 108 107 100 107 105 96 89 88 83 77 71 69 68 67 50 46 60 68 78 59 39 30
76 13 32 21 63 74 56 27 18 55 56 44 66 19 357 66 69 72 101 86 95 109 121 110 108 109 106 104 105 105 117 136 117 118 122 117 93 95 90 84 84 83 65 3 52 51 54 32 28 34 49 54 32 3
69 23 53 52 17 84 100 74 71 106 97 59 66 81 62 68 64 68 81 137 112 116 148 141 124 121 116 109 111 104 93 84 94 118 115 120 9 342 357 9 28 53 70 16 343 349 10 21 1 353 0 7 5 358
64 360 44 42 84 93 81 68 67 66 64 78 336 42 71 69 92 95 134 151 144 136 147 155 135 98 121 122 127 113 91 93 107 100 96 87 74 50 3 339 347 68 38 23 23 10 16 23 23 1 348 351 340 339
63 45 73 15 56 44 90 61 51 60 44 22 67 47 106 150 156 132 165 160 175 178 172 152 114 84 113 137 135 128 79 63 67 78 63 42 40 31 32 29 25 35 29 355 16 6 2 5 346 337 354 1 338 338
59 84 79 43 57 49 39 64 74 56 25 62 103 96 91 76 134 134 144 157 174 195 193 183 161 157 142 129 105 289 262 292 300 327 340 333 338 356 357 3 3 348 342 337 338 342 330 318 316 313 315 322 322 328
66 51 92 54 60 49 26 64 81 89 101 105 102 111 104 112 122 129 135 142 120 101 124 137 136 149 153 160 40 80 151 213 249 269 284 294 309 329 345 350 347 331 335 331 308 304 302 301 298 295 299 305 312 315
81 79 71 65 83 114 107 94 93 94 94 99 114 114 116 117 131 135 153 172 186 236 212 183 183 226 284 301 323 330 323 315 319 314 320 328 342 333 327 347 354 353 344 333 325 324 323 318 314 318 320 321 323 326
49 84 117 99 117 153 100 65 70 75 71 79 88 107 112 106 125 173 185 191 188 180 179 176 188 225 268 298 301 305 302 297 298 307 308 304 306 318 328 328 329 331 332 333 328 327 330 332 334 331 331 334 333 330
89 95 101 98 117 174 181 136 97 96 83 84 90 111 99 126 150 181 194 198 212 221 257 270 272 291 303 293 298 311 316 318 327 323 308 295 300 310 318 321 322 320 322 326 328 331 330 329 330 331 331 331 330 330
Height
1295 1291 1288 1285 1284 1283 1282 1282 1284 1286 1290 1295 1300 1307 1315 1324 1332 1342 1348 1354 1361 1368 1366 1368 1373 1374 1382 1388 1393 1395 1406 1404 1408 1415 1419 1417 1419 1405 1406 1402 1408 1417 1425 1425 1423 1421 1416 1380 1373 1386 1391 1382 1379 1373
1287 1283 1279 1276 1273 1272 1270 1271 1273 1275 1279 1283 1289 1296 1304 1312 1322 1334 1343 1348 1358 1363 1367 1367 1369 1373 1375 1379 1384 1389 1390 1391 1394 1402 1409 1405 1409 1409 1400 1405 1396 1409 1402 1409 1405 1406 1394 1378 1374 1381 1385 1382 1377 1375
1279 1275 1271 1268 1265 1263 1262 1262 1262 1264 1266 1271 1277 1285 1293 1302 1312 1321 1334 1341 1354 1359 1366 1368 1367 1370 1372 1375 1376 1382 1385 1388 1388 1389 1395 1393 1395 1393 1400 1401 1395 1392 1390 1393 1396 1382 1383 1377 1378 1375 1376 1374 1374 1373
1274 1269 1265 1261 1259 1257 1253 1251 1249 1250 1253 1257 1264 1273 1283 1294 1305 1318 1323 1332 1347 1356 1362 1361 1363 1362 1368 1369 1373 1377 1382 1383 1385 1388 1389 1391 1392 1383 1391 1388 1387 1384 1385 1383 1382 1380 1377 1374 1373 1370 1370 1370 1367 1371
1270 1266 1262 1260 1257 1252 1246 1239 1237 1239 1240 1243 1253 1264 1276 1289 1302 1312 1321 1330 1340 1352 1354 1356 1355 1359 1364 1367 1368 1375 1377 1380 1382 1386 1388 1387 1382 1384 1384 1387 1383 1386 1387 1385 1377 1370 1368 1366 1364 1362 1363 1365 1368 1369
1268 1266 1265 1262 1257 1250 1244 1239 1239 1240 1239 1240 1248 1260 1275 1289 1300 1308 1322 1331 1337 1344 1349 1353 1353 1355 1359 1363 1366 1370 1374 1375 1378 1381 1385 1380 1376 1378 1386 1386 1389 1386 1393 1385 1380 1371 1367 1367 1364 1363 1363 1362 1363 1364
1271 1270 1268 1266 1260 1254 1248 1245 1245 1246 1248 1249 1250 1265 1280 1293 1301 1308 1315 1319 1333 1343 1348 1349 1348 1352 1356 1361 1365 1366 1367 1371 1374 1378 1379 1376 1377 1376 1380 1380 1387 1388 1387 1382 1374 1366 1366 1368 1367 1366 1366 1364 1364 1364
1277 1276 1274 1272 1267 1263 1258 1256 1255 1255 1256 1262 1266 1276 1290 1301 1311 1318 1313 1319 1333 1339 1342 1349 1353 1352 1356 1359 1362 1363 1367 1369 1370 1368 1369 1373 1374 1377 1381 1391 1389 1388 1385 1380 1375 1369 1369 1370 1370 1367 1366 1363 1362 1361
1283 1282 1281 1280 1277 1275 1273 1271 1268 1269 1273 1278 1283 1289 1297 1305 1312 1315 1322 1330 1338 1342 1340 1345 1353 1354 1354 1357 1358 1361 1362 1366 1363 1365 1365 1369 1378 1390 1395 1392 1390 1389 1388 1384 1380 1375 1372 1370 1370 1366 1365 1363 1363 1363
1289 1289 1289 1288 1287 1286 1284 1285 1285 1285 1288 1292 1297 1298 1302 1310 1315 1323 1330 1333 1335 1336 1339 1344 1345 1350 1353 1355 1358 1359 1359 1364 1365 1365 1365 1377 1395 1398 1396 1393 1388 1386 1384 1382 1376 1370 1370 1368 1369 1369 1368 1367 1366 1366
1297 1297 1297 1296 1295 1295 1294 1293 1293 1293 1294 1296 1302 1309 1313 1317 1320 1325 1335 1340 1342 1344 1345 1347 1348 1351 1355 1356 1357 1358 1359 1361 1364 1362 1366 1384 1396 1399 1397 1394 1390 1386 1385 1381 1378 1376 1374 1373 1375 1376 1375 1371 1371 1370
1307 1306 1306 1305 1304 1303 1301 1300 1300 1299 1298 1303 1307 1315 1318 1321 1325 1331 1338 1340 1342 1344 1347 1347 1348 1349 1351 1353 1354 1357 1358 1360 1362 1364 1377 1396 1401 1400 1397 1396 1390 1389 1386 1382 1378 1379 1377 1375 1378 1378 1376 1375 1373 1373
1315 1314 1313 1313 1312 1311 1309 1308 1307 1308 1309 1311 1313 1319 1325 1331 1340 1345 1341 1342 1346 1349 1350 1349 1349 1349 1351 1353 1354 1355 1354 1356 1362 1377 1396 1405 1405 1403 1401 1399 1395 1392 1389 1386 1384 1383 1382 1381 1381 1382 1381 1380 1379 1379
1320 1319 1319 1317 1317 1316 1315 1315 1314 1313 1314 1317 1323 1337 1343 1353 1355 1358 1358 1356 1355 1353 1352 1350 1350 1348 1349 1351 1352 1352 1365 1365 1382 1395 1408 1408 1406 1405 1402 1400 1397 1397 1395 1393 1391 1390 1390 1391 1392 1392 1389 1389 1389 1390
1325 1324 1322 1321 1319 1319 1318 1317 1317 1315 1319 1330 1339 1355 1360 1363 1361 1359 1357 1355 1355 1353 1351 1351 1350 1353 1356 1358 1364 1364 1374 1393 1400 1411 1413 1413 1411 1408 1406 1404 1403 1403 1403 1402 1400 1397 1398 1400 1399 1398 1399 1400 1399 1400
1328 1327 1325 1324 1322 1320 1320 1320 1318 1320 1336 1348 1360 1364 1365 1363 1363 1360 1358 1356 1355 1352 1352 1354 1354 1360 1367 1374 1378 1385 1392 1406 1412 1416 1417 1415 1414 1413 1412 1412 1413 1413 1410 1408 1406 1406 1407 1408 1407 1408 1409 1408 1408 1407
1330 1330 1329 1328 1326 1321 1320 1320 1325 1339 1354 1365 1373 1373 1371 1369 1368 1365 1362 1359 1356 1355 1359 1360 1369 1377 1375 1382 1394 1403 1409 1414 1417 1419 1418 1417 1417 1417 1416 1416 1417 1416 1414 1412 1412 1414 1415 1418 1419 1418 1416 1417 1416 1417
1332 1332 1332 1330 1328 1327 1324 1329 1343 1360 1373 1378 1378 1378 1377 1374 1371 1368 1365 1359 1358 1360 1365 1374 1380 1390 1397 1401 1410 1417 1419 1419 1421 1421 1422 1422 1422 1422 1422 1421 1421 1421 1420 1420 1420 1421 1424 1425 1424 1424 1425 1425 1424 1425
1334 1333 1333 1333 1330 1330 1336 1348 1355 1372 1384 1386 1386 1383 1380 1379 1374 1371 1369 1367 1365 1366 1372 1385 1398 1407 1413 1414 1416 1420 1421 1422 1424 1426 1426 1427 1427 1427 1427 1426 1426 1426 1427 1428 1429 1429 1430 1431 1431 1431 1431 1430 1429 1430
1337 1337 1336 1335 1334 1336 1346 1359 1364 1373 1384 1391 1390 1389 1386 1385 1384 1377 1373 1373 1371 1376 1391 1407 1416 1419 1419 1420 1422 1424 1426 1427 1427 1428 1430 1431 1431 1430 1431 1432 1433 1434 1434 1435 1434 1434 1434 1434 1435 1435 1435 1434 1433 1433
1340 1340 1340 1339 1338 1342 1354 1362 1370 1378 1385 1389 1391 1391 1394 1393 1388 1387 1385 1386 1385 1402 1416 1426 1425 1425 1424 1425 1427 1428 1429 1430 1431 1431 1433 1434 1436 1436 1437 1438 1438 1438 1437 1437 1437 1437 1437 1437 1438 1438 1437 1436 1436 1436
1343 1343 1343 1343 1345 1353 1362 1368 1372 1378 1383 1388 1391 1394 1397 1401 1402 1404 1409 1405 1418 1428 1431 1432 1433 1432 1432 1433 1434 1434 1435 1435 1435 1436 1437 1438 1439 1440 1440 1441 1441 1440 1440 1440 1441 1441 1441 1441 1440 1439 1438 1437 1437 1437
1345 1345 1345 1347 1351 1362 1375 1374 1376 1380 1385 1389 1393 1398 1403 1407 1413 1416 1423 1432 1437 1440 1439 1438 1437 1438 1437 1439 1439 1439 1440 1440 1440 1441 1442 1442 1442 1443 1443 1443 1443 1443 1443 1443 1443 1442 1442 1442 1441 1440 1439 1439 1439 1438
1347 1348 1351 1354 1360 1372 1375 1377 1381 1384 1389 1394 1400 1409 1409 1412 1418 1426 1436 1441 1442 1442 1443 1443 1442 1442 1442 1443 1442 1443 1444 1444 1443 1444 1446 1446 1445 1445 1446 1445 1445 1445 1445 1445 1444 1443 1443 1442 1442 1441 1440 1440 1439 1438
1351 1360 1361 1365 1368 1373 1383 1387 1389 1392 1403 1403 1410 1414 1414 1415 1426 1436 1442 1444 1445 1444 1444 1445 1445 1445 1445 1446 1447 1447 1448 1449 1448 1447 1448 1448 1448 1448 1448 1448 1447 1446 1446 1446 1445 1444 1443 1442 1442 1441 1441 1440 1439 1439
1364 1368 1370 1372 1375 1378 1385 1395 1398 1401 1405 1410 1413 1413 1416 1423 1437 1442 1442 1445 1445 1446 1446 1447 1447 1447 1448 1449 1449 1450 1451 1451 1451 1450 1450 1450 1450 1450 1449 1449 1448 1448 1447 1446 1446 1445 1444 1443 1442 1442 1441 1441 1440 1439
1375 1377 1376 1377 1378 1381 1389 1394 1397 1402 1410 1415 1416 1419 1425 1443 1447 1443 1444 1445 1446 1447 1448 1449 1449 1449 1449 1450 1451 1452 1452 1452 1452 1452 1452 1451 1451 1451 1450 1449 1449 1448 1447 1446 1446 1445 1444 1444 1443 1442 1441 1440 1439 1438
1378 1380 1384 1386 1386 1389 1396 1403 1409 1415 1416 1416 1419 1431 1438 1442 1442 1443 1444 1446 1447 1448 1449 1450 1451 1451 1451 1452 1453 1453 1453 1453 1452 1453 1452 1452 1451 1450 1450 1449 1448 1447 1447 1446 1445 1445 1444 1443 1442 1441 1441 1440 1439 1437
1383 1386 1388 1394 1396 1402 1409 1412 1416 1417 1418 1418 1424 1433 1436 1439 1441 1442 1445 1447 1448 1449 1450 1450 1451 1452 1453 1453 1454 1454 1453 1453 1453 1452 1452 1452 1451 1451 1450 1449 1448 1447 1446 1446 1445 1444 1443 1443 1442 1441 1440 1438 1437 1435
1390 1391 1395 1403 1409 1417 1419 1419 1419 1418 1418 1420 1425 1433 1438 1442 1445 1447 1447 1448 1450 1450 1450 1451 1452 1453 1454 1455 1455 1454 1454 1454 1453 1453 1452 1451 1451 1451 1450 1449 1448 1447 1446 1445 1444 1444 1443 1442 1440 1439 1438 1436 1435 1433
1391 1394 1402 1410 1419 1425 1425 1425 1425 1424 1425 1428 1432 1434 1438 1444 1448 1449 1450 1451 1451 1452 1452 1453 1453 1454 1454 1455 1454 1454 1454 1453 1452 1452 1451 1451 1450 1450 1449 1448 1447 1446 1445 1444 1443 1441 1440 1439 1438 1437 1435 1434 1432 1429
1396 1399 1405 1416 1425 1427 1427 1428 1431 1433 1436 1437 1439 1441 1444 1446 1448 1449 1450 1451 1452 1453 1453 1454 1455 1455 1455 1454 1454 1454 1453 1452 1452 1451 1450 1450 1449 1448 1448 1447 1445 1444 1443 1442 1441 1440 1439 1437 1436 1434 1432 1430 1428 1426
1405 1407 1410 1415 1424 1427 1429 1431 1433 1438 1440 1441 1443 1444 1445 1446 1447 1449 1449 1450 1452 1452 1454 1454 1455 1455 1454 1453 1453 1453 1452 1452 1451 1450 1449 1449 1448 1447 1446 1445 1444 1443 1442 1441 1439 1438 1437 1435 1433 1431 1429 1427 1425 1423